Location: Moscow
(55.7500°N, 37.5830°E)
Time: 19:00:38
(UTC+03:00)

ISS - Pass Details

Date: 25 May 2021
Orbit: 417 x 422 km, 51.6° (Epoch: 16 June)

Event Time Altitude Azimuth Distance (km) Brightness Sun altitude
Rises 23:15:42 0° 272° (W) 2,370 0.3 -11.7°
Reaches altitude 10° 23:18:37 10° 245° (WSW) 1,503 -1.0 -11.8°
Maximum altitude 23:20:19 13° 214° (SW) 1,314 -1.6 -11.9°
Enters shadow 23:20:44 13° 206° (SSW) 1,326 -1.7 -11.9°
